Back to catalog

STARLINK-30222

AliveCommunicationsVLEO
NORAD 57409·PAYLOAD·🇺🇸 United States

Launched Jul 20, 2023 from Vandenberg Space Force Base

Loading…

Next Passes (next 24 hours)

TLE

FreshSource: CelesTrak SupGP

Epoch: Sep 14, 2026, 13:57 UTC

1 57409C 23102F   26257.58173611  .00009456  00000+0  34259-3 0  2573
2 57409  43.0032 261.7326 0001574 277.4078 297.3278 15.27564177    12

Track STARLINK-30222 in real time with AllMySat

Download on the App Store